ON4LDM-13 Weather Reports


Display with metric or nautical units.
time (UTC)temp
F
wind
direction
speed
MPH
gust
MPH
rain 1hr
in
rain 24hr
in
rain mn
in
humidity
%
barometer
mb
20260506183005 49 347 2.0 5.0 0.00 0.23 0.06 84 1009.6
20260506182505 49 348 3.0 7.0 0.00 0.24 0.06 84 1009.6
20260506182004 49 340 2.0 7.0 0.00 0.24 0.06 84 1009.6
20260506181505 50 330 2.0 7.0 0.00 0.28 0.06 84 1009.5
20260506181004 50 338 2.0 5.0 0.00 0.31 0.06 84 1009.4
20260506180005 50 344 2.0 6.0 0.00 0.33 0.06 85 1009.3
20260506175504 50 336 2.0 5.0 0.00 0.33 0.06 85 1009.3
20260506174505 50 351 3.0 8.0 0.00 0.35 0.06 85 1009.3
20260506174005 50 348 3.0 8.0 0.00 0.35 0.06 85 1009.3
20260506173508 50 344 3.0 5.0 0.00 0.35 0.06 84 1009.4
20260506172504 50 342 3.0 8.0 0.00 0.35 0.06 84 1009.3
20260506172004 50 344 4.0 10.0 0.00 0.35 0.06 84 1009.3
20260506171004 51 343 2.0 6.0 0.00 0.35 0.06 84 1009.3
20260506170504 51 348 3.0 7.0 0.00 0.35 0.06 84 1009.2
20260506165504 51 348 3.0 9.0 0.00 0.35 0.06 83 1009.0
20260506165005 51 345 3.0 10.0 0.00 0.35 0.06 83 1009.1
20260506164004 51 356 3.0 8.0 0.00 0.35 0.06 83 1009.0
20260506163504 51 359 3.0 8.0 0.00 0.36 0.06 83 1008.9
20260506163004 51 2 2.0 6.0 0.00 0.36 0.06 84 1008.9
20260506162504 51 339 2.0 6.0 0.00 0.36 0.06 84 1008.9
20260506162004 51 346 3.0 8.0 0.00 0.36 0.06 84 1008.9
20260506161504 51 356 3.0 9.0 0.00 0.36 0.06 83 1008.9
20260506161004 52 355 3.0 9.0 0.00 0.36 0.06 83 1008.9
20260506160504 52 348 4.0 10.0 0.00 0.37 0.06 83 1008.8
20260506160004 52 347 3.0 10.0 0.00 0.37 0.06 82 1008.8
20260506155503 52 357 3.0 6.0 0.00 0.37 0.06 83 1008.8
20260506155004 52 352 4.0 8.0 0.00 0.38 0.06 83 1008.7
20260506154504 52 350 4.0 13.0 0.00 0.38 0.06 83 1008.7
20260506154004 52 353 3.0 13.0 0.00 0.38 0.06 83 1008.8
20260506153004 52 353 3.0 7.0 0.00 0.39 0.06 84 1008.6
20260506152004 51 345 3.0 9.0 0.00 0.39 0.06 84 1008.5
20260506151504 51 346 3.0 9.0 0.00 0.39 0.06 85 1008.5
20260506150004 51 346 4.0 9.0 0.00 0.39 0.06 85 1008.6
20260506145504 52 343 4.0 9.0 0.00 0.39 0.06 84 1008.5
20260506145004 52 347 3.0 9.0 0.00 0.40 0.06 84 1008.5
20260506144504 52 355 3.0 9.0 0.00 0.40 0.06 83 1008.4
20260506143504 52 347 3.0 10.0 0.00 0.40 0.06 84 1008.4
20260506143004 52 356 2.0 7.0 0.00 0.41 0.06 85 1008.5
20260506142004 52 340 2.0 6.0 0.00 0.41 0.06 85 1008.6
20260506141504 52 326 2.0 6.0 0.00 0.42 0.06 86 1008.6
20260506141003 52 334 2.0 6.0 0.00 0.42 0.06 86 1008.6
20260506140504 51 347 3.0 7.0 0.00 0.42 0.06 87 1008.6
20260506140004 51 347 3.0 7.0 0.00 0.42 0.06 87 1008.6
20260506135503 51 341 2.0 7.0 0.00 0.42 0.06 87 1008.6
20260506135004 51 333 2.0 5.0 0.00 0.43 0.06 86 1008.5
20260506134504 52 346 2.0 5.0 0.00 0.43 0.06 86 1008.6
20260506134003 52 349 3.0 6.0 0.00 0.43 0.06 85 1008.5
20260506132503 51 351 2.0 7.0 0.00 0.43 0.06 87 1008.5
20260506131510 51 345 3.0 6.0 0.00 0.43 0.06 87 1008.4
20260506131005 51 342 3.0 6.0 0.00 0.43 0.06 87 1008.5
20260506130511 51 345 2.0 5.0 0.00 0.44 0.06 87 1008.4
20260506125506 51 340 2.0 7.0 0.00 0.45 0.06 87 1008.3
20260506125004 51 347 3.0 8.0 0.00 0.46 0.06 86 1008.3
20260506124504 51 352 3.0 9.0 0.00 0.48 0.06 87 1008.2
20260506124004 51 352 3.0 9.0 0.00 0.50 0.06 87 1008.2
20260506123504 51 352 2.0 6.0 0.00 0.54 0.06 87 1008.2
20260506123004 51 357 2.0 10.0 0.00 0.59 0.06 87 1008.1
20260506122503 51 354 3.0 10.0 0.00 0.61 0.06 87 1007.9
20260506122004 51 341 3.0 8.0 0.00 0.62 0.06 87 1008.0
20260506121504 51 321 3.0 8.0 0.00 0.64 0.06 87 1007.9
20260506120503 51 336 3.0 9.0 0.00 0.67 0.06 87 1007.9
20260506120004 52 341 3.0 9.0 0.00 0.69 0.06 86 1007.9
20260506115004 52 348 3.0 6.0 0.00 0.71 0.06 87 1007.7
20260506114503 52 345 3.0 6.0 0.00 0.72 0.06 87 1007.7
20260506114003 51 345 3.0 6.0 0.00 0.72 0.06 87 1007.6
20260506113504 52 346 2.0 4.0 0.00 0.72 0.06 87 1007.7
20260506112503 51 354 3.0 6.0 0.00 0.72 0.06 88 1007.6
20260506111504 51 348 2.0 8.0 0.00 0.72 0.06 88 1007.6
20260506111004 51 337 2.0 4.0 0.00 0.72 0.06 89 1007.5
20260506110004 51 333 2.0 4.0 0.00 0.72 0.06 89 1007.4
20260506105503 51 339 2.0 4.0 0.00 0.72 0.06 89 1007.4
20260506104504 51 348 2.0 9.0 0.00 0.72 0.06 89 1007.4
20260506104004 51 342 3.0 9.0 0.00 0.72 0.06 89 1007.3
20260506103504 51 341 3.0 8.0 0.00 0.72 0.06 88 1007.3
20260506103004 51 340 2.0 8.0 0.00 0.72 0.06 89 1007.3
20260506102504 51 342 3.0 8.0 0.00 0.72 0.06 89 1007.4
20260506101004 51 346 3.0 8.0 0.00 0.72 0.06 88 1007.2
20260506100503 52 340 3.0 8.0 0.00 0.72 0.06 89 1007.1
20260506100004 52 351 4.0 10.0 0.00 0.72 0.06 90 1007.0
20260506095504 52 354 4.0 10.0 0.00 0.72 0.06 90 1007.0
20260506095005 51 348 3.0 7.0 0.00 0.72 0.06 91 1007.0
20260506094005 51 350 4.0 10.0 0.00 0.72 0.06 92 1006.9
20260506093504 51 351 3.0 10.0 0.00 0.72 0.06 91 1006.9
20260506093005 51 353 2.0 8.0 0.00 0.72 0.06 92 1006.9
20260506092505 51 354 2.0 5.0 0.00 0.72 0.06 92 1006.8
20260506092004 50 348 2.0 5.0 0.00 0.72 0.06 92 1006.8
20260506091505 50 347 3.0 9.0 0.00 0.72 0.06 93 1006.8
20260506091005 50 351 3.0 9.0 0.00 0.72 0.06 92 1006.8
20260506090505 50 351 2.0 6.0 0.00 0.72 0.06 93 1006.7
20260506090005 50 345 3.0 9.0 0.00 0.72 0.06 94 1006.7
20260506085505 50 344 2.0 9.0 0.00 0.72 0.06 94 1006.6
20260506085005 51 343 2.0 8.0 0.00 0.72 0.06 95 1006.6
20260506084505 50 341 3.0 9.0 0.00 0.72 0.06 94 1006.5
20260506084005 50 341 3.0 9.0 0.00 0.72 0.06 95 1006.4
20260506083505 50 342 3.0 11.0 0.00 0.72 0.06 95 1006.3
20260506083005 50 347 3.0 11.0 0.00 0.72 0.06 95 1006.3
20260506082005 50 344 2.0 8.0 0.00 0.72 0.06 95 1006.3
20260506081505 50 339 2.0 7.0 0.00 0.72 0.06 96 1006.3
20260506081005 49 320 1.0 4.0 0.00 0.72 0.06 96 1006.3
20260506073505 49 333 1.0 4.0 0.00 0.72 0.06 95 1006.4
20260506073006 49 333 1.0 4.0 0.00 0.72 0.06 95 1006.3
20260506071005 49 359 1.0 4.0 0.00 0.72 0.06 95 1006.2
20260506070504 49 355 1.0 4.0 0.00 0.72 0.06 96 1006.1
20260506062505 49 346 1.0 4.0 0.01 0.72 0.06 96 1005.8
20260506062005 49 349 1.0 4.0 0.01 0.72 0.06 96 1005.7
20260506061505 49 5 1.0 4.0 0.01 0.72 0.06 96 1005.8
20260506060505 49 3 0.0 3.0 0.01 0.72 0.06 96 1005.6
20260506051005 49 346 0.0 3.0 0.00 0.72 0.05 96 1005.5
20260506050504 49 346 0.0 3.0 0.00 0.72 0.05 96 1005.5
20260506045005 49 0 0.0 0.0 0.00 0.72 0.05 96 1005.4
20260506044505 49 0 0.0 0.0 0.00 0.72 0.05 96 1005.4
20260506044005 49 0 0.0 0.0 0.00 0.72 0.05 96 1005.4
20260506043505 49 0 0.0 0.0 0.00 0.72 0.05 96 1005.4
20260506043005 49 0 0.0 0.0 0.00 0.72 0.05 96 1005.4
20260506042505 49 0 0.0 0.0 0.00 0.72 0.05 96 1005.3
20260506042005 50 0 0.0 0.0 0.00 0.72 0.05 96 1005.4
20260506041505 50 0 0.0 0.0 0.00 0.72 0.05 96 1005.5
20260506041005 50 0 0.0 0.0 0.00 0.72 0.05 96 1005.5
20260506040504 50 0 0.0 0.0 0.00 0.72 0.05 96 1005.5
20260506035505 50 0 0.0 0.0 0.00 0.72 0.05 96 1005.6
20260506035005 50 0 0.0 0.0 0.00 0.72 0.05 96 1005.6
20260506034504 50 0 0.0 0.0 0.00 0.72 0.05 96 1005.7
20260506033005 50 0 0.0 0.0 0.00 0.72 0.05 96 1005.6
20260506032505 50 0 0.0 0.0 0.00 0.72 0.05 96 1005.6
20260506031505 50 0 0.0 0.0 0.00 0.72 0.05 96 1005.7
20260506031005 50 0 0.0 0.0 0.00 0.72 0.05 96 1005.7
20260506030505 50 0 0.0 0.0 0.00 0.72 0.05 96 1005.8
20260506030005 50 0 0.0 0.0 0.00 0.72 0.05 96 1005.9
20260506025505 50 0 0.0 0.0 0.00 0.72 0.05 96 1005.8
20260506025005 50 0 0.0 0.0 0.00 0.72 0.05 95 1005.9
20260506024504 50 240 0.0 1.0 0.00 0.72 0.05 95 1005.9
20260506024005 50 212 0.0 3.0 0.00 0.72 0.05 95 1005.9
20260506023505 50 210 1.0 5.0 0.00 0.72 0.05 95 1005.9
20260506023005 51 210 2.0 5.0 0.00 0.72 0.05 95 1005.9
20260506022505 51 212 2.0 5.0 0.00 0.72 0.05 95 1005.9
20260506021505 51 199 1.0 5.0 0.00 0.72 0.05 95 1005.8
20260506021005 52 213 2.0 8.0 0.00 0.72 0.05 95 1005.8
20260506020505 52 211 2.0 8.0 0.00 0.72 0.05 95 1005.8
20260506020005 52 211 3.0 8.0 0.00 0.72 0.05 95 1005.8
20260506015004 52 200 2.0 9.0 0.00 0.72 0.05 96 1005.8
20260506014504 52 207 3.0 9.0 0.00 0.72 0.05 96 1005.8
20260506014005 52 210 3.0 9.0 0.00 0.72 0.05 96 1005.8
20260506013505 52 198 3.0 10.0 0.00 0.72 0.05 96 1005.8
20260506012505 52 192 3.0 9.0 0.00 0.72 0.05 96 1005.8
20260506012005 52 200 3.0 8.0 0.01 0.72 0.05 96 1005.8
20260506011504 52 196 3.0 8.0 0.02 0.72 0.05 96 1005.9
20260506011005 53 191 3.0 8.0 0.03 0.72 0.05 96 1005.7
20260506010505 53 182 3.0 14.0 0.03 0.72 0.05 96 1005.9
20260506010005 53 175 3.0 14.0 0.03 0.72 0.05 96 1005.9
20260506005505 53 172 3.0 8.0 0.03 0.72 0.05 96 1005.9
20260506005005 53 170 3.0 9.0 0.03 0.72 0.05 96 1006.0
20260506004505 53 170 3.0 9.0 0.03 0.72 0.05 96 1006.0
20260506004005 53 172 3.0 8.0 0.03 0.72 0.05 96 1006.0
20260506003505 53 177 2.0 7.0 0.03 0.72 0.05 96 1006.0
20260506003005 53 181 2.0 6.0 0.03 0.72 0.05 96 1006.1
20260506002504 53 176 2.0 6.0 0.02 0.71 0.04 96 1006.1
20260506002005 53 171 2.0 6.0 0.03 0.71 0.04 96 1006.1
20260506001005 53 170 2.0 5.0 0.01 0.69 0.02 96 1006.2
20260506000505 53 174 2.0 5.0 0.01 0.69 0.02 96 1006.3
20260506000005 53 184 2.0 5.0 0.02 0.69 0.02 96 1006.3
20260505235505 53 188 2.0 5.0 0.02 0.69 0.02 96 1006.4
20260505235005 53 176 1.0 5.0 0.02 0.69 0.02 96 1006.4
20260505234505 53 162 0.0 4.0 0.02 0.69 0.02 97 1006.5
20260505234005 53 166 1.0 3.0 0.02 0.69 0.02 97 1006.5
20260505233505 53 168 1.0 3.0 0.02 0.69 0.02 97 1006.5
20260505233005 53 164 1.0 2.0 0.02 0.69 0.02 97 1006.5
20260505232505 53 167 0.0 2.0 0.02 0.69 0.02 96 1006.5
20260505232005 53 143 0.0 2.0 0.01 0.68 0.01 96 1006.5
20260505231505 53 141 0.0 2.0 0.01 0.68 0.01 96 1006.6
20260505231005 53 177 0.0 2.0 0.01 0.68 0.01 97 1006.6
20260505230504 53 201 0.0 2.0 0.01 0.68 0.01 97 1006.6
20260505230004 53 192 0.0 2.0 0.00 0.67 0.00 97 1006.6
20260505225004 53 174 0.0 3.0 0.00 0.67 0.00 97 1006.7
20260505224005 53 152 0.0 4.0 0.00 0.67 0.00 96 1006.8
20260505223504 53 156 0.0 4.0 0.00 0.67 0.00 96 1006.8
20260505223004 53 157 0.0 4.0 0.00 0.67 0.00 96 1006.8
20260505222005 53 0 0.0 0.0 0.00 0.67 0.00 96 1006.8
20260505221504 53 0 0.0 0.0 0.00 0.67 0.00 96 1006.9
20260505220505 53 0 0.0 0.0 0.00 0.67 0.00 96 1007.0
20260505220007 53 0 0.0 0.0 0.00 0.67 0.00 96 1007.0
20260505215505 53 0 0.0 0.0 0.00 0.67 0.67 96 1007.1
20260505215004 53 0 0.0 0.0 0.00 0.67 0.67 96 1007.1
20260505214505 53 0 0.0 0.0 0.00 0.67 0.67 96 1007.1
20260505214005 53 0 0.0 0.0 0.00 0.67 0.67 96 1007.2
20260505213505 53 0 0.0 0.0 0.01 0.67 0.67 96 1007.2
20260505213005 53 0 0.0 0.0 0.02 0.67 0.67 96 1007.2
20260505212505 53 42 0.0 1.0 0.02 0.67 0.67 96 1007.2
20260505211505 53 43 0.0 1.0 0.03 0.67 0.67 96 1007.2
20260505211004 53 0 0.0 0.0 0.03 0.67 0.67 96 1007.3
20260505210505 53 0 0.0 0.0 0.04 0.67 0.67 96 1007.3
20260505210006 53 0 0.0 0.0 0.04 0.67 0.67 96 1007.4
20260505205504 53 0 0.0 0.0 0.05 0.67 0.67 96 1007.4
20260505205005 53 0 0.0 0.0 0.05 0.67 0.67 96 1007.4
20260505204504 53 0 0.0 0.0 0.06 0.67 0.67 96 1007.4
20260505204005 53 0 0.0 0.0 0.06 0.67 0.67 96 1007.6
20260505203505 53 0 0.0 0.0 0.06 0.66 0.66 96 1007.6
20260505203004 53 0 0.0 0.0 0.06 0.65 0.65 96 1007.6
20260505202505 53 0 0.0 0.0 0.06 0.65 0.65 96 1007.5
20260505201505 53 42 0.0 1.0 0.06 0.64 0.64 96 1007.4
20260505201005 53 43 0.0 1.0 0.06 0.64 0.64 95 1007.4
20260505195505 53 55 0.0 1.0 0.07 0.62 0.62 95 1007.4
20260505195004 53 0 0.0 0.0 0.08 0.62 0.62 95 1007.4
20260505194505 53 0 0.0 0.0 0.09 0.61 0.61 95 1007.5
20260505193505 53 0 0.0 0.0 0.11 0.61 0.61 95 1007.3
20260505193005 53 0 0.0 0.0 0.11 0.60 0.60 95 1007.2
20260505192504 53 0 0.0 0.0 0.11 0.59 0.59 95 1007.3
20260505192005 53 0 0.0 0.0 0.13 0.58 0.58 95 1007.3
20260505191504 53 0 0.0 0.0 0.17 0.58 0.58 95 1007.3
20260505191005 53 359 0.0 1.0 0.17 0.57 0.57 95 1007.4
20260505190505 53 359 0.0 1.0 0.17 0.57 0.57 95 1007.3